Regional Weather Roundup
Issued by NWS

Home | Current Version | Previous Version | Graphics & Text | Print | Product List | Glossary On
Versions: 1 2 3 4 5 6 7 8 9 10 11 12 13 14 15 16 17 18 19 20 21 22 23 24 25 26 27 28 29 30 31 32 33 34 35 36 37 38 39 40 41 42 43 44 45 46 47 48 49 50
202
ASUS43 KIND 231709
RWRIN

WEATHER ROUNDUP FOR INDIANA
NATIONAL WEATHER SERVICE INDIANAPOLIS IN
100 PM EDT TUE MAY 23 2017

NOTE: "FAIR" INDICATES FEW OR NO CLOUDS BELOW 12,000 FEET WITH NO
SIGNIFICANT WEATHER AND/OR OBSTRUCTIONS TO VISIBILITY.

* - STATION DOES NOT REPORT WEATHER SUCH AS PRECIPITATION OR FOG.

+ - STATION NOT QUALITY CONTROLLED BY THE NATIONAL WEATHER SERVICE.
    USE DATA WITH CAUTION...ESPECIALLY DEWPOINT AND RELATIVE
    HUMIDITY OBSERVATIONS.

INZ001>003-010>013-019-020-231800-
NORTHWEST INDIANA

CITY           SKY/WX    TMP DP  RH WIND       PRES   REMARKS
GARY /AIRPORT/ CLOUDY    63  54  72 CALM      29.81F
KNOX *+        CLOUDY    64  43  45 N7        29.80F
LA PORTE +     CLOUDY    64  54  71 NE6       29.82F
MICHIGAN CITY+ CLOUDY    61  54  77 CALM      29.82F
MONTICELLO +   CLOUDY    68  50  52 CALM      29.79F
RENSSELAER +   CLOUDY    64  50  59 CALM      29.80F
VALPARAISO     CLOUDY    65  55  70 CALM      29.81F

$$

LMZ046-743>745-231800-
SOUTHERN LAKE MICHIGAN

STATION/POSITION TIME  TEMP    WIND        PRES    WAVE
                       AIR SEA DIR/SP/G            HT
                 (UTC) (F)     (DEG/KT/KT) (MB)    (FT)
BURNS HARBOR     1640   58      20/  2/  3 1010.2F
MICHIGAN CITY    1640   59     280/  1/  2   N/A
5NW MICH CITY    1700   56 53  100/  2/  4   N/A     0

$$

INZ004-005-014>016-021>024-231800-
NORTH CENTRAL INDIANA

CITY           SKY/WX    TMP DP  RH WIND       PRES   REMARKS
ELKHART        LGT RAIN  64  48  55 CALM      29.82F
GOSHEN         PTSUNNY   69  45  41 N3        29.81F
LOGANSPORT +   PTSUNNY   66  45  45 CALM      29.81F
PERU/GRISSOM   CLOUDY    68  50  53 CALM      29.79F
ROCHESTER +    MOSUNNY   72  46  40 SE3       29.81F
SOUTH BEND     LGT RAIN  62  56  80 N7        29.82F
WARSAW +       CLOUDY    68  46  45 CALM      29.81F

$$

INZ006>009-017-018-025>027-231800-
NORTHEAST INDIANA

CITY           SKY/WX    TMP DP  RH WIND       PRES   REMARKS
ANGOLA *+      SUNNY     70  52  52 SW3       29.81F
AUBURN +       CLOUDY    70  46  43 SE6       29.83F
FORT WAYNE     CLOUDY    70  49  47 CALM      29.81F
HUNTINGTON +   CLOUDY    66  51  58 N3        29.80F
KENDALLVILLE + MOSUNNY   71  46  40 S7        29.82F

$$

INZ028-029-035-036-043>045-051>053-231800-
WEST CENTRAL INDIANA

CITY           SKY/WX    TMP DP  RH WIND       PRES   REMARKS
CRAWFORDSVL +  CLOUDY    64  50  59 SE3       29.79F
GREENCASTLE +  PTSUNNY   68  48  49 E6        29.79F
LAFAYETTE      MOSUNNY   69  52  54 VRB3      29.78F
TERRE HAUTE    SUNNY     70  50  49 S6        29.77F

$$

INZ030>032-037>040-046>048-054>057-064-065-231800-
CENTRAL INDIANA

CITY           SKY/WX    TMP DP  RH WIND       PRES   REMARKS
ANDERSON       SUNNY    N/A N/A N/A E6        29.80F
CP ATTERBURY + CLOUDY    68  50  52 SE3       29.79F
COLUMBUS       MOSUNNY   66  45  45 E6        29.79F
FISHERS *+     SUNNY     70  54  56 SE3       29.79F
FRANKFORT +    PTSUNNY   71  53  51 SE9       29.81F
GREENWOOD *+   CLOUDY    69  46  44 SE6       29.79F
INDIANAPOLIS   CLOUDY    70  51  51 SE7       29.78F
-EAGLE CREEK   MOSUNNY   69  46  43 E6        29.78F
KOKOMO +       PTSUNNY   68  51  54 SE3       29.81F
MARION +       CLOUDY    66  46  48 SE7       29.81F HAZE
MT COMFORT *+  CLOUDY    70  46  43 SE6       29.79F
SHELBYVILLE    CLOUDY    71  44  37 VRB6      29.77F
ZIONSVILLE +   PTSUNNY   66  50  55 SW3       29.79F

$$

INZ033-034-041-042-049-050-058-059-231800-
EAST CENTRAL INDIANA

CITY           SKY/WX    TMP DP  RH WIND       PRES   REMARKS
MUNCIE         CLOUDY    70  44  39 SE8       29.79F
RICHMOND +     MOSUNNY   66  46  48 NE6       29.81F

$$

INZ060-061-067>069-081>083-085>088-231800-
SOUTHWEST INDIANA

CITY           SKY/WX    TMP DP  RH WIND       PRES   REMARKS
EVANSVILLE     MOSUNNY   75  49  39 CALM      29.75F
WASHINGTON +   SUNNY     69  47  44 SE7       29.76F

$$

INZ062-063-066-070>080-084-089>092-231800-
SOUTH CENTRAL AND SOUTHEAST INDIANA

CITY           SKY/WX    TMP DP  RH WIND       PRES   REMARKS
BEDFORD +      SUNNY     70  50  49 NW3       29.76F
BLOOMINGTON    SUNNY     70  50  49 SE9       29.77F
MADISON *+     CLOUDY    72  45  37 NE3       29.80F
NORTH VERNON + CLOUDY    70  48  46 CALM      29.78F
SEYMOUR +      PTSUNNY   72  48  43 CALM      29.76F

$$





USA.gov is the U.S. government's official web portal to all federal, state and local government web resources and services.